{"data":{"norad_id":62757,"epoch":"2026-09-24T02:33:58.262976Z","epoch_age_seconds":37957,"freshness":"FRESH","line1":"1 62757U 25014Y   26267.10692434  .00209744  00000+0  11842-2 0  9994","line2":"2 62757  42.9979 229.3754 0001682 271.2278  88.8399 15.77752648 96391","mean_motion":15.77752648,"eccentricity":0.0001682,"inclination_deg":42.9979,"raan_deg":229.3754,"arg_perigee_deg":271.2278,"mean_anomaly_deg":88.8399,"bstar":0.0011842,"rev_number":9639,"period_min":91.269059305676,"perigee_km":335.68013822958,"apogee_km":337.93904626321,"semimajor_km":6714.9465922464,"source":"CELESTRAK","updated_at":"2026-09-24T09:00:26.542311Z"}}